| time (UTC) | temp C | wind direction | speed KPH | gust KPH | rain 1hr cm | rain 24hr cm | rain mn cm | humidity % | barometer mb |
| 20260506023958 | 8 | 7 | 9.7 | 20.9 | 0.08 | 0.00 | 0.00 | 98 | 1007.7 |
| 20260506022458 | 8 | 13 | 9.7 | 20.9 | 0.08 | 0.00 | 0.00 | 98 | 1007.8 |
| 20260506020958 | 8 | 14 | 9.7 | 17.7 | 0.08 | 0.00 | 0.00 | 98 | 1007.9 |
| 20260506015458 | 8 | 11 | 9.7 | 17.7 | 0.08 | 0.00 | 0.00 | 98 | 1008.0 |
| 20260506013957 | 8 | 12 | 9.7 | 20.9 | 0.08 | 0.00 | 0.00 | 98 | 1008.1 |
| 20260506012457 | 8 | 9 | 12.9 | 20.9 | 0.05 | 0.00 | 0.00 | 98 | 1008.1 |
| 20260506010957 | 8 | 7 | 12.9 | 20.9 | 0.03 | 0.00 | 0.00 | 97 | 1008.3 |
| 20260506005457 | 7 | 15 | 9.7 | 17.7 | 0.00 | 0.00 | 0.00 | 97 | 1008.4 |
| 20260506003957 | 8 | 14 | 12.9 | 20.9 | 0.00 | 0.00 | 0.00 | 97 | 1008.5 |
| 20260506002457 | 8 | 15 | 12.9 | 20.9 | 0.00 | 0.00 | 0.00 | 97 | 1008.5 |
| 20260506000956 | 7 | 13 | 9.7 | 20.9 | 0.00 | 0.00 | 0.00 | 97 | 1008.8 |
| 20260505235456 | 7 | 16 | 9.7 | 20.9 | 0.00 | 0.00 | 0.00 | 97 | 1008.8 |
| 20260505233955 | 7 | 13 | 12.9 | 24.1 | 0.00 | 0.00 | 0.00 | 97 | 1008.8 |
| 20260505232456 | 7 | 11 | 17.7 | 24.1 | 0.00 | 0.00 | 0.00 | 96 | 1009.0 |
| 20260505230955 | 8 | 12 | 17.7 | 24.1 | 0.00 | 0.00 | 0.00 | 95 | 1009.1 |
| 20260505225455 | 8 | 13 | 12.9 | 20.9 | 0.00 | 0.00 | 0.00 | 95 | 1009.1 |
| 20260505223955 | 8 | 9 | 12.9 | 20.9 | 0.00 | 0.00 | 0.00 | 95 | 1009.1 |
| 20260505222455 | 8 | 9 | 12.9 | 20.9 | 0.00 | 0.00 | 0.00 | 94 | 1009.2 |
| 20260505220954 | 8 | 9 | 17.7 | 24.1 | 0.00 | 0.00 | 0.00 | 92 | 1009.3 |
| 20260505215453 | 8 | 7 | 12.9 | 24.1 | 0.00 | 0.00 | 0.00 | 91 | 1009.3 |
| 20260505213953 | 10 | 9 | 12.9 | 24.1 | 0.00 | 0.00 | 0.00 | 88 | 1009.5 |
| 20260505212453 | 10 | 18 | 17.7 | 27.4 | 0.00 | 0.00 | 0.00 | 87 | 1009.5 |
| 20260505210953 | 10 | 7 | 17.7 | 32.2 | 0.00 | 0.00 | 0.00 | 85 | 1009.6 |
| 20260505205452 | 10 | 12 | 12.9 | 24.1 | 0.00 | 0.00 | 0.00 | 84 | 1009.5 |
| 20260505203951 | 10 | 19 | 17.7 | 24.1 | 0.00 | 0.00 | 0.00 | 83 | 1009.5 |
| 20260505202451 | 10 | 14 | 12.9 | 24.1 | 0.00 | 0.00 | 0.00 | 82 | 1009.5 |
| 20260505200951 | 10 | 10 | 12.9 | 24.1 | 0.00 | 0.00 | 0.00 | 82 | 1009.4 |
| 20260505195450 | 10 | 11 | 9.7 | 20.9 | 0.00 | 0.00 | 0.00 | 82 | 1009.4 |
| 20260505193949 | 10 | 10 | 9.7 | 17.7 | 0.00 | 0.00 | 0.00 | 83 | 1009.3 |
| 20260505192448 | 10 | 1 | 9.7 | 17.7 | 0.00 | 0.00 | 0.00 | 82 | 1009.2 |
| 20260505190948 | 10 | 5 | 9.7 | 17.7 | 0.00 | 0.00 | 0.00 | 83 | 1009.1 |
| 20260505185447 | 10 | 4 | 9.7 | 17.7 | 0.00 | 0.00 | 0.00 | 83 | 1009.2 |
| 20260505183947 | 10 | 4 | 9.7 | 17.7 | 0.00 | 0.00 | 0.00 | 83 | 1009.2 |
| 20260505182446 | 10 | 5 | 9.7 | 12.9 | 0.00 | 0.00 | 0.00 | 84 | 1009.2 |
| 20260505180945 | 10 | 12 | 6.4 | 12.9 | 0.00 | 0.00 | 0.00 | 85 | 1009.2 |
| 20260505175445 | 10 | 14 | 9.7 | 12.9 | 0.00 | 0.00 | 0.00 | 85 | 1009.2 |
| 20260505173944 | 10 | 13 | 9.7 | 12.9 | 0.00 | 0.00 | 0.00 | 86 | 1009.3 |
| 20260505172444 | 10 | 6 | 9.7 | 12.9 | 0.00 | 0.00 | 0.00 | 86 | 1009.3 |
| 20260505170943 | 10 | 10 | 9.7 | 12.9 | 0.00 | 0.00 | 0.00 | 85 | 1009.5 |
| 20260505165443 | 10 | 8 | 9.7 | 12.9 | 0.00 | 0.00 | 0.00 | 86 | 1009.5 |
| 20260505163942 | 10 | 22 | 6.4 | 17.7 | 0.00 | 0.00 | 0.00 | 86 | 1009.6 |
| 20260505162441 | 10 | 23 | 9.7 | 17.7 | 0.00 | 0.00 | 0.00 | 85 | 1009.6 |
| 20260505160940 | 10 | 36 | 9.7 | 17.7 | 0.00 | 0.00 | 0.00 | 85 | 1009.6 |
| 20260505152439 | 10 | 30 | 12.9 | 20.9 | 0.00 | 0.00 | 0.00 | 86 | 1010.0 |
| 20260505150938 | 10 | 28 | 17.7 | 20.9 | 0.00 | 0.00 | 0.00 | 86 | 1010.0 |
| 20260505123932 | 10 | 19 | 12.9 | 20.9 | 0.00 | 0.00 | 0.00 | 91 | 1011.0 |
| 20260505122432 | 10 | 28 | 9.7 | 20.9 | 0.00 | 0.00 | 0.00 | 93 | 1011.0 |
| 20260505120931 | 10 | 39 | 12.9 | 24.1 | 0.00 | 0.00 | 0.00 | 93 | 1011.1 |
| 20260505115430 | 8 | 32 | 17.7 | 24.1 | 0.00 | 0.00 | 0.00 | 94 | 1011.2 |
| 20260505113929 | 8 | 31 | 17.7 | 24.1 | 0.00 | 0.00 | 0.00 | 95 | 1011.2 |
| 20260505112429 | 8 | 41 | 12.9 | 24.1 | 0.00 | 0.00 | 0.00 | 91 | 1011.4 |
| 20260505110929 | 8 | 29 | 17.7 | 24.1 | 0.00 | 0.00 | 0.00 | 92 | 1011.4 |
| 20260505100927 | 8 | 22 | 12.9 | 24.1 | 0.00 | 0.00 | 0.00 | 94 | 1011.6 |
| 20260505095427 | 8 | 38 | 17.7 | 27.4 | 0.00 | 0.00 | 0.00 | 93 | 1011.6 |
| 20260505093926 | 8 | 30 | 17.7 | 32.2 | 0.00 | 0.00 | 0.00 | 92 | 1011.7 |
| 20260505092426 | 7 | 28 | 17.7 | 27.4 | 0.00 | 0.00 | 0.00 | 93 | 1011.5 |
| 20260505090926 | 7 | 25 | 17.7 | 27.4 | 0.00 | 0.00 | 0.00 | 93 | 1011.6 |
| 20260505085425 | 7 | 18 | 12.9 | 24.1 | 0.00 | 0.00 | 0.00 | 95 | 1011.7 |
| 20260505083924 | 7 | 24 | 17.7 | 24.1 | 0.00 | 0.00 | 0.00 | 95 | 1011.8 |
| 20260505082423 | 7 | 21 | 12.9 | 24.1 | 0.00 | 0.00 | 0.00 | 94 | 1011.9 |
| 20260505080923 | 7 | 19 | 12.9 | 27.4 | 0.00 | 0.00 | 0.00 | 95 | 1011.7 |
| 20260505075422 | 7 | 18 | 17.7 | 27.4 | 0.00 | 0.00 | 0.00 | 95 | 1011.8 |
| 20260505073922 | 7 | 21 | 12.9 | 20.9 | 0.00 | 0.00 | 0.00 | 96 | 1011.9 |
| 20260505072421 | 7 | 22 | 12.9 | 20.9 | 0.00 | 0.00 | 0.00 | 96 | 1011.9 |
| 20260505070921 | 7 | 22 | 12.9 | 20.9 | 0.00 | 0.00 | 0.00 | 96 | 1011.9 |
| 20260505065419 | 7 | 22 | 12.9 | 20.9 | 0.00 | 0.00 | 0.00 | 96 | 1011.9 |
| 20260505063919 | 7 | 27 | 12.9 | 24.1 | 0.00 | 0.00 | 0.00 | 97 | 1011.8 |
| 20260505062420 | 7 | 24 | 12.9 | 24.1 | 0.00 | 0.00 | 0.00 | 97 | 1011.8 |
| 20260505060919 | 6 | 19 | 12.9 | 20.9 | 0.00 | 0.00 | 0.00 | 97 | 1011.7 |
| 20260505055418 | 6 | 19 | 12.9 | 20.9 | 0.00 | 0.00 | 0.00 | 98 | 1011.7 |
| 20260505053917 | 7 | 25 | 17.7 | 20.9 | 0.00 | 0.00 | 0.00 | 97 | 1011.6 |
| 20260505052417 | 7 | 27 | 12.9 | 20.9 | 0.00 | 0.00 | 0.00 | 97 | 1011.6 |
| 20260505050917 | 7 | 28 | 12.9 | 20.9 | 0.00 | 0.00 | 0.00 | 97 | 1011.6 |
| 20260505040914 | 7 | 28 | 17.7 | 27.4 | 0.15 | 0.00 | 0.00 | 97 | 1011.5 |
| 20260505035413 | 7 | 21 | 12.9 | 20.9 | 0.15 | 0.00 | 0.00 | 98 | 1011.6 |
| 20260505033912 | 7 | 24 | 12.9 | 24.1 | 0.25 | 0.00 | 0.00 | 97 | 1011.8 |
| 20260505032412 | 7 | 18 | 12.9 | 24.1 | 0.20 | 0.00 | 0.00 | 98 | 1011.7 |
| 20260505030912 | 8 | 10 | 12.9 | 24.1 | 0.30 | 0.00 | 0.00 | 98 | 1011.6 |
| 20260505025412 | 8 | 12 | 17.7 | 24.1 | 0.28 | 0.00 | 0.00 | 97 | 1011.6 |